{"data":{"norad_id":64329,"intl_designator":"2025-124N","name":"STARLINK-11734 [DTC]","alt_names":[],"object_type":"PAYLOAD","status":"ACTIVE","operator":null,"country":"US","launch_date":"2025-06-10","launch_site_code":"AFETR","launch_vehicle":null,"mission":null,"orbit_class":"UNKNOWN","rcs_meters":null,"size_class":null,"mass_kg":null,"dimensions":null,"purposes":["comms"],"wikipedia_slug":null,"has_3d_model":false,"image_url":null,"decayed_at":null,"tle_current":{"epoch":"2026-09-20T03:41:18.194784Z","epoch_age_seconds":165065,"freshness":"FRESH","line1":"1 64329U 25124N   26263.15368281  .00142951  00000+0  10959-2 0  9998","line2":"2 64329  43.0002 296.5892 0002241 272.6897  87.3714 15.70895139 73420","mean_motion":15.70895139,"eccentricity":0.0002241,"inclination_deg":43.0002,"raan_deg":296.5892,"arg_perigee_deg":272.6897,"mean_anomaly_deg":87.3714,"bstar":0.0010959,"rev_number":7342,"period_min":91.667480804395,"perigee_km":354.82827286851,"apogee_km":357.84666432533,"semimajor_km":6734.4744685969,"source":"CELESTRAK","updated_at":"2026-09-21T09:00:35.313086Z"}}}